DL2BWO-13 Weather Reports


time (UTC)temp
C
wind
direction
speed
KPH
gust
KPH
rain 1hr
cm
rain 24hr
cm
rain mn
cm
humidity
%
barometer
mb
20260504222256 16 0.0 0.0 0.00 0.00 0.00 94 743.7
20260504220720 16 0.0 0.0 0.00 0.00 0.00 93 743.8
20260504215144 16 0.0 0.0 0.00 0.00 0.00 95 744.1
20260504213608 16 0.0 0.0 0.00 0.00 0.00 93 744.3
20260504212033 17 0.0 0.0 0.00 0.00 0.00 92 744.7
20260504140346 25 0.0 0.0 0.00 0.00 0.00 57 754.2
20260504130122 23 0.0 0.0 0.00 0.00 0.00 60 751.7
20260504080459 22 0.0 0.0 0.00 0.00 0.00 63 750.9
20260504070235 20 0.0 0.0 0.00 0.00 0.00 71 748.1
20260504045747 17 0.0 0.0 0.00 0.00 0.00 63 744.7
20260504044211 17 0.0 0.0 0.00 0.00 0.00 63 744.6
20260504042635 16 0.0 0.0 0.00 0.00 0.00 62 744.4
20260504041059 16 0.0 0.0 0.00 0.00 0.00 61 744.4
20260504035523 16 0.0 0.0 0.00 0.00 0.00 62 744.3
20260504033947 17 0.0 0.0 0.00 0.00 0.00 60 744.6
20260504032411 17 0.0 0.0 0.00 0.00 0.00 58 744.9
20260504030835 17 0.0 0.0 0.00 0.00 0.00 57 744.8
20260504025300 17 0.0 0.0 0.00 0.00 0.00 56 744.8
20260504023724 17 0.0 0.0 0.00 0.00 0.00 55 745.1
20260504022148 17 0.0 0.0 0.00 0.00 0.00 55 745.3
20260504020612 17 0.0 0.0 0.00 0.00 0.00 54 745.4
20260504015036 17 0.0 0.0 0.00 0.00 0.00 54 745.5
20260504013500 17 0.0 0.0 0.00 0.00 0.00 54 745.7
20260504010348 18 0.0 0.0 0.00 0.00 0.00 52 746.4
20260504003236 19 0.0 0.0 0.00 0.00 0.00 50 747.2
20260503234548 20 0.0 0.0 0.00 0.00 0.00 49 747.8
20260503231436 20 0.0 0.0 0.00 0.00 0.00 49 748.5